Location: New Mesquite
(33.1168°N, 96.4336°W)
Time: 13:47:26
(UTC+00:00)

Meteor 1-27 Rocket - Pass Details

Date: 07 July 2022
Orbit: 829 x 911 km, 81.3° (Epoch: 18 August)

Event Time Altitude Azimuth Distance (km) Brightness Sun altitude
Rises 08:53:35 0° 347° (NNW) 3,405 7.4 -24.7°
Reaches altitude 10° 08:56:02 10° 345° (NNW) 2,458 6.6 -24.4°
Maximum altitude 09:01:30 62° 265° (W) 929 3.6 -23.7°
Enters shadow 09:02:09 58° 232° (SW) 967 3.6 -23.6°
